Change the Weather History Date:

Sunday, January 13, 2013

  Actual Average (KCHS) Record (KCHS)
Temperature  
Mean Temperature 65 °F 48 °F  
Max Temperature 77 °F 59 °F 78 °F (1960)
Min Temperature 53 °F 37 °F 13 °F (1981)
Degree Days  
Heating Degree Days 0 17  
Month to date heating degree days 221  
Since 1 July heating degree days 959  
Cooling Degree Days 0 0  
Month to date cooling degree days 0  
Year to date cooling degree days 0  
Growing Degree Days 15 (Base 50)    
Moisture  
Dew Point 58 °F    
Average Humidity 81    
Maximum Humidity 100    
Minimum Humidity 54    
Precipitation  
Precipitation 0.00 in 0.12 in 1.92 in (1958)
Month to date precipitation 1.52  
Year to date precipitation 1.52  
Sea Level Pressure  
Sea Level Pressure 30.13 in    
Wind  
Wind Speed 2 mph (SSW)    
Max Wind Speed 10 mph    
Max Gust Speed -    
Visibility 6 miles    
Events Fog    
T = Trace of Precipitation, MM = Missing Value Source: NWS Daily Summary

Daily Weather History Graph

Daily Weather History Graph

Search for Another Location

Airport or City:

Trip Planner

Search our weather history database for the weather conditions in past years. The results will help you decide how hot, cold, wet, or windy it might be!

Date:

Astronomy

Jan. 13, 2013 Rise Set
Actual Time 7:23 AM EST 5:34 PM EST
Civil Twilight 6:56 AM EST 6:01 PM EST
Nautical Twilight 6:26 AM EST 6:31 PM EST
Astronomical Twilight 5:56 AM EST 7:01 PM EST
Moon 8:29 AM EST (1/13) 8:01 PM EST (1/13)
Length of Visible Light 11h 04m
Length of Day
10h 10m
Waxing Crescent, 5% of the Moon is Illuminated
Jan 13
Waxing Crescent
Jan 18
First Quarter
Jan 26
Full
Feb 3
Last Quarter
Feb 10
New

Hourly Weather History & Observations

Time (EST) Temp. Dew Point Humidity Pressure Visibility Wind Dir Wind Speed Gust Speed Precip Events Conditions
12:35 AM 60.8 °F 59.0 °F 94% 30.13 in 3.0 mi Calm Calm - N/A   Clear
12:55 AM 60.8 °F 59.0 °F 94% 30.13 in 2.5 mi Calm Calm - N/A   Clear
1:55 AM 59.0 °F 57.2 °F 94% 30.14 in 0.5 mi Calm Calm - N/A Fog Fog
2:35 AM 57.2 °F 55.4 °F 94% 30.13 in 3.0 mi Calm Calm - N/A   Clear
2:55 AM 59.0 °F 57.2 °F 94% 30.13 in 2.5 mi Calm Calm - N/A   Clear
3:15 AM 59.0 °F 57.2 °F 94% 30.13 in 0.2 mi Calm Calm - N/A Fog Fog
3:35 AM 57.2 °F 55.4 °F 94% 30.12 in 0.2 mi Calm Calm - N/A Fog Fog
3:55 AM 57.2 °F 55.4 °F 94% 30.12 in 0.2 mi Calm Calm - N/A Fog Fog
4:15 AM 57.2 °F 55.4 °F 94% 30.11 in 0.2 mi Calm Calm - N/A Fog Fog
4:35 AM 55.4 °F 53.6 °F 94% 30.11 in 1.5 mi Calm Calm - N/A   Overcast
4:55 AM 55.4 °F 53.6 °F 94% 30.11 in 0.2 mi Calm Calm - N/A Fog Fog
5:15 AM 55.4 °F 53.6 °F 94% 30.11 in 0.2 mi Calm Calm - N/A Fog Fog
5:35 AM 55.4 °F 53.6 °F 94% 30.11 in 1.2 mi Calm Calm - N/A   Mostly Cloudy
5:55 AM 55.4 °F 53.6 °F 94% 30.12 in 0.2 mi Calm Calm - N/A Fog Fog
6:15 AM 55.4 °F 53.6 °F 94% 30.12 in 0.2 mi Calm Calm - N/A Fog Fog
6:35 AM 53.6 °F 51.8 °F 94% 30.13 in 0.5 mi Calm Calm - N/A Fog Fog
6:55 AM 53.6 °F 51.8 °F 94% 30.13 in 0.2 mi Calm Calm - N/A Fog Fog
7:15 AM 53.6 °F 51.8 °F 94% 30.14 in 0.2 mi Calm Calm - N/A Fog Fog
7:35 AM 53.6 °F 51.8 °F 94% 30.15 in 0.2 mi Calm Calm - N/A Fog Fog
7:55 AM 53.6 °F 51.8 °F 94% 30.16 in 0.2 mi Calm Calm - N/A Fog Fog
8:15 AM 53.6 °F 53.6 °F 100% 30.16 in 0.2 mi Calm Calm - N/A Fog Fog
8:35 AM 55.4 °F 55.4 °F 100% 30.17 in 0.2 mi Calm Calm - N/A Fog Fog
9:15 AM 62.6 °F 60.8 °F 94% 30.18 in 5.0 mi Calm Calm - N/A   Scattered Clouds
9:35 AM 64.4 °F 62.6 °F 94% 30.18 in 5.0 mi Calm Calm - N/A   Clear
9:55 AM 68.0 °F 66.2 °F 94% 30.18 in 10.0 mi WSW 3.5 mph - N/A   Clear
10:15 AM 69.8 °F 64.4 °F 83% 30.18 in 10.0 mi WSW 4.6 mph - N/A   Clear
10:35 AM 73.4 °F 62.6 °F 69% 30.18 in 7.0 mi SSW 5.8 mph - N/A   Clear
10:55 AM 73.4 °F 62.6 °F 69% 30.17 in 10.0 mi SW 10.4 mph - N/A   Clear
11:15 AM 75.2 °F 62.6 °F 65% 30.17 in 10.0 mi West 4.6 mph - N/A   Clear
11:35 AM 77.0 °F 60.8 °F 57% 30.16 in 10.0 mi SSW 8.1 mph - N/A   Clear
11:55 AM 75.2 °F 60.8 °F 61% 30.15 in 10.0 mi SSW 9.2 mph - N/A   Clear
12:15 PM 75.2 °F 59.0 °F 57% 30.14 in 7.0 mi SW 9.2 mph - N/A   Clear
12:35 PM 75.2 °F 60.8 °F 61% 30.13 in 7.0 mi SW 6.9 mph - N/A   Clear
12:55 PM 75.2 °F 60.8 °F 61% 30.13 in 10.0 mi SW 8.1 mph - N/A   Clear
1:15 PM 77.0 °F 60.8 °F 57% 30.11 in 10.0 mi SSW 5.8 mph - N/A   Clear
1:35 PM 77.0 °F 60.8 °F 57% 30.11 in 10.0 mi SW 8.1 mph - N/A   Clear
1:55 PM 77.0 °F 59.0 °F 54% 30.09 in 10.0 mi SSE 5.8 mph - N/A   Clear
2:15 PM 77.0 °F 59.0 °F 54% 30.08 in 7.0 mi SSW 5.8 mph - N/A   Clear
2:35 PM 77.0 °F 59.0 °F 54% 30.09 in 10.0 mi WSW 5.8 mph - N/A   Clear
3:35 PM 77.0 °F 60.8 °F 57% 30.11 in 10.0 mi SW 4.6 mph - N/A   Scattered Clouds
3:55 PM 77.0 °F 59.0 °F 54% 30.11 in 10.0 mi South 4.6 mph - N/A   Scattered Clouds
4:15 PM 77.0 °F 59.0 °F 54% 30.11 in 10.0 mi SSW 8.1 mph - N/A   Scattered Clouds
4:35 PM 75.2 °F 59.0 °F 57% 30.12 in 10.0 mi South 6.9 mph - N/A   Clear
4:55 PM 75.2 °F 59.0 °F 57% 30.13 in 10.0 mi SSW 5.8 mph - N/A   Clear
5:35 PM 71.6 °F 59.0 °F 64% 30.12 in 7.0 mi South 4.6 mph - N/A   Clear
6:15 PM 69.8 °F 59.0 °F 68% 30.12 in 10.0 mi SSE 3.5 mph - N/A   Clear
6:35 PM 68.0 °F 59.0 °F 73% 30.12 in 10.0 mi Calm Calm - N/A   Clear
6:55 PM 68.0 °F 59.0 °F 73% 30.12 in 7.0 mi Calm Calm - N/A   Clear
7:15 PM 66.2 °F 57.2 °F 73% 30.12 in 10.0 mi Calm Calm - N/A   Clear
7:35 PM 64.4 °F 57.2 °F 77% 30.13 in 10.0 mi Calm Calm - N/A   Clear
8:15 PM 64.4 °F 59.0 °F 83% 30.12 in 10.0 mi Calm Calm - N/A   Clear
8:35 PM 62.6 °F 57.2 °F 82% 30.12 in 10.0 mi SSE 3.5 mph - N/A   Clear
8:55 PM 62.6 °F 59.0 °F 88% 30.12 in 10.0 mi Calm Calm - N/A   Clear
9:15 PM 60.8 °F 57.2 °F 88% 30.13 in 7.0 mi Calm Calm - N/A   Clear
9:35 PM 60.8 °F 59.0 °F 94% 30.14 in 10.0 mi Calm Calm - N/A   Clear
9:55 PM 59.0 °F 57.2 °F 94% 30.13 in 7.0 mi Calm Calm - N/A   Clear
10:35 PM 60.8 °F 59.0 °F 94% 30.15 in 7.0 mi South 3.5 mph - N/A   Clear
10:55 PM 60.8 °F 59.0 °F 94% 30.16 in 7.0 mi Calm Calm - N/A   Clear
11:15 PM 60.8 °F 59.0 °F 94% 30.15 in 5.0 mi Calm Calm - N/A   Clear
11:35 PM 60.8 °F 59.0 °F 94% 30.16 in 1.5 mi Calm Calm - N/A   Mist
11:55 PM 60.8 °F 59.0 °F 94% 30.15 in 4.0 mi Calm Calm - N/A   Clear